MST,Max TemperatureF,Mean TemperatureF,Min TemperatureF,Max Dew PointF,MeanDew PointF,Min DewpointF,Max Humidity, Mean Humidity, Min Humidity, Max Sea Level PressureIn, Mean Sea Level PressureIn, Min Sea Level PressureIn, Max VisibilityMiles, Mean VisibilityMiles, Min VisibilityMiles, Max Wind SpeedMPH, Mean Wind SpeedMPH, Max Gust SpeedMPH,PrecipitationIn, CloudCover, Events, WindDirDegrees
2013-8-1,80,74,69,64,59,55,83,62,45,30.27,30.06,29.96,10,10,10,22,8,30,0.01,6,Rain-Thunderstorm,128
2013-8-2,82,75,68,64,61,57,83,62,51,30.20,30.03,29.93,10,10,10,28,4,39,0.05,6,Rain-Thunderstorm,228
2013-8-3,,,,,,,,,,,,,,,,,,,,,,
2013-8-4,77,77,77,55,55,55,47,47,47,30.14,30.04,29.93,10,10,10,7,7,,0.00,6,,250
2013-8-5,80,71,62,64,58,54,88,62,42,30.27,30.13,29.93,10,9,4,38,9,47,0.02,7,Rain-Thunderstorm,224
2013-8-6,78,70,62,64,60,57,88,73,47,30.18,30.05,29.97,10,10,6,16,5,24,0.11,4,Rain-Thunderstorm,299
2013-8-7,84,72,60,59,54,49,88,54,29,30.07,30.01,29.96,10,10,10,15,7,20,0.00,1,,288
2013-8-8,87,76,64,54,46,37,68,37,18,30.00,29.94,29.89,10,10,10,12,6,16,0.00,1,,255
2013-8-9,91,78,66,48,44,36,43,28,20,29.95,29.92,29.88,10,10,10,16,8,22,0.00,1,,197
2013-8-10,90,78,66,57,48,36,52,35,20,30.13,29.99,29.92,10,10,10,18,7,17,0.00,3,,162
2013-8-11,87,78,68,64,59,57,73,57,37,30.10,29.97,29.91,10,10,5,15,6,22,0.02,2,Rain-Thunderstorm,143
2013-8-12,93,81,69,61,55,45,73,44,24,30.11,29.93,29.87,10,10,10,14,5,17,0.00,2,Thunderstorm,226
2013-8-13,93,82,71,57,46,36,47,29,18,30.09,29.95,29.88,10,10,10,14,8,16,0.00,5,Thunderstorm,236
2013-8-14,91,81,71,66,58,54,69,51,28,30.23,30.00,29.90,10,10,10,21,8,28,0.03,5,Rain-Thunderstorm,217
2013-8-15,91,80,69,63,56,48,73,48,23,30.17,30.02,29.91,10,8,1,31,9,44,0.47,5,Rain-Thunderstorm,109
2013-8-16,91,80,69,61,56,47,73,46,21,30.13,29.99,29.90,10,10,10,13,6,21,0.00,2,,192
2013-8-17,93,82,71,59,51,44,61,35,18,30.12,29.95,29.85,10,10,10,15,6,20,0.00,0,Thunderstorm,181
2013-8-18,93,82,72,61,53,49,64,39,21,30.20,29.99,29.91,10,10,10,18,7,24,0.01,2,Rain-Thunderstorm,239
2013-8-19,91,81,71,55,51,46,50,37,23,30.16,29.97,29.90,10,10,10,21,7,,0.00,7,Thunderstorm,210
2013-8-20,93,80,68,61,55,46,75,48,20,30.17,29.99,29.84,10,10,7,24,9,31,0.02,7,Rain-Thunderstorm,256
2013-8-21,87,76,66,63,57,52,83,56,29,30.17,29.98,29.89,10,10,8,17,4,,0.05,6,Rain-Thunderstorm,193
2013-8-22,89,76,64,64,53,46,88,47,22,30.01,29.94,29.87,10,10,10,17,6,,0.00,2,,246
2013-8-23,89,78,64,63,53,45,93,48,22,30.14,29.93,29.78,10,10,4,15,7,22,0.19,4,Rain-Thunderstorm,177
2013-8-24,77,70,63,63,61,56,94,77,52,30.15,30.01,29.91,10,9,3,18,7,25,0.29,6,Rain-Thunderstorm,117
2013-8-25,84,75,66,66,63,57,93,70,43,30.17,30.01,29.94,10,10,7,13,4,17,0.03,4,Rain-Thunderstorm,147
2013-8-26,89,79,69,66,59,50,88,55,27,30.07,29.95,29.86,10,10,10,17,5,26,0.00,4,,131
2013-8-27,89,79,69,59,54,46,68,44,22,29.94,29.88,29.81,10,10,10,18,5,21,0.00,2,,122
2013-8-28,84,76,69,63,58,55,71,54,37,30.00,29.93,29.85,10,10,10,17,8,22,0.00,4,,135
2013-8-29,73,70,66,66,64,61,97,83,69,30.27,30.13,29.99,10,10,3,13,4,,0.01,6,Rain-Thunderstorm,5
2013-8-30,86,76,66,66,61,55,94,66,37,30.27,30.11,29.99,10,10,10,10,3,,0.00,5,Rain-Thunderstorm,66
2013-8-31,90,78,66,66,58,55,73,53,31,30.11,29.99,29.90,10,10,7,21,6,31,0.02,1,Rain-Thunderstorm,262